Location: Piedmont
(45.8748°N, 74.1254°W)
Time: 22:45:32
(UTC+00:00)

N. Korean satellite - Pass Details

Date: 08 December 2021
Orbit: 447 x 491 km, 97.3° (Epoch: 21 January)

Event Time Altitude Azimuth Distance (km) Brightness Sun altitude
Rises 10:45:07 0° 4° (N) 2,463 10.0 -16.7°
Reaches altitude 10° 10:47:14 10° 356° (N) 1,584 9.0 -16.3°
Maximum altitude 10:50:23 37° 288° (WNW) 715 6.9 -15.8°
Drops below altitude 10° 10:53:31 10° 220° (SW) 1,573 8.9 -15.3°
Sets 10:55:37 0° 212° (SSW) 2,443 10.0 -14.9°
